星链-2492 (STARLINK-2492 )

导读 | 豆包AI

STARLINK-2492(星链-2492)是美国太空探索技术公司(SpaceX)星链计划第24批次发射的低轨通信卫星,国际标识为2021-027BK,于2021年4月7日发射,目前仍在轨运行。 卫星采用Starlink V1.0平台,运行在约550公里高度的近地轨道,轨道倾角53.056°,周期约95.6分钟。它配备先进通信设备,支持星间链路,旨在为全球提供高速互联网服务,助力偏远地区网络覆盖。

基本信息
目录编号:
48149
目录名称:
STARLINK-2492
国际标识:
2021-027BK
轨道中心:
EARTH
卫星名称:
星链-2492
卫星全名:
星链-2492 (STARLINK-2492 )
卫星状态:
在轨 (已飞行1849 天)
发射日期:
2021-04-07 UTC
国别 :
美国 (US)
星等 :
--
轨道信息
数据来源 国际轨道数据 AOE轨道数据
星历时间 2026-04-30T04:18:53+0800
17小时前
查看轨道信息
2026-04-27T08:00:00+0800
3天前
查看轨道信息
半长轴 6855.833km 6855.856km
偏心率 0.0001071 0.0001654
轨道倾角 53.156° 53.157°
近地点辐角 88.623° 85.923°
升交点赤经 274.792° 287.994°
平近点角 271.489° 73.868°
近地点 476.961km 476.585km
远地点 478.431km 478.853km
周期 94.156分钟 94.157分钟
每日圈数 15.293697 15.293619
详细信息
固有亮度:
5
最大亮度:
2.5
卫星平台:
Starlink V1.0
覆盖范围:
全球
运营商:
太空探索技术公司
运营商所在国:
美国
制造商(研发单位):
太空探索技术公司
制造商所在国:
美国
使用方式:
暂无
卫星简介
星链(Starlink)计划是由太空探索技术公司(SpaceX)提出的一个巨型低轨卫星互联网星座项目,计划在2019年至2024年间在太空搭建由约1.2万颗卫星组成的“星链”网络,其中1584颗将部署在地球上空550千米处的近地轨道,并从2020年开始工作。该卫星仍在工作。
2D轨道图
3D轨道图
轨道高度分析图
轨道倾角分析图
轨道综合分析图
查看轨道综合分析图